This demonstration page uses our WeatherBlox Daily Observations layout. Learn more.

Left ArrowRight Arrow

39.95238, -75.16362

Hourly Observations for April 30, 2022

Temp ( °F °C ) Dew Point ( °F °C ) Humidity (%) Winds ( mph kmh ) Pressure ( in mb ) Visibility ( mi km ) Precip ( " mm )
12:54 am 00:54 Clear 51 10.6 15 -9.4 24 24 N 12 19 30.16 1022 10 16 0.00 0.00
1:54 am 01:54 Clear 49 9.4 16 -8.9 27 27 N 8 13 30.16 1021 10 16 0.00 0.00
2:54 am 02:54 Clear 47 8.3 16 -8.9 29 29 N 9 15 30.15 1021 10 16 0.00 0.00
3:54 am 03:54 Clear 46 7.8 17 -8.3 31 31 NNW 8 13 30.16 1021 10 16 0.00 0.00
4:54 am 04:54 Clear 44 6.7 17 -8.3 34 34 NNW 7 11 30.16 1021 10 16 0.00 0.00
5:54 am 05:54 Clear 44 6.7 17 -8.3 34 34 N 8 13 30.17 1022 10 16 0.00 0.00
6:54 am 06:54 Sunny 45 7.2 19 -7.2 35 35 N 6 9 30.19 1022 10 16 0.00 0.00
7:54 am 07:54 Sunny 50 10 18 -7.8 28 28 NNW 12 19 30.19 1022 10 16 0.00 0.00
8:54 am 08:54 Sunny 55 12.8 19 -7.2 24 24 N 12 19 30.19 1022 10 16 0.00 0.00
9:54 am 09:54 Mostly Sunny 58 14.4 19 -7.2 22 22 NNW 10 17 30.18 1022 10 16 0.00 0.00
10:54 am 10:54 Mostly Sunny 59 15 18 -7.8 20 20 NNW 10 17 30.17 1022 10 16 0.00 0.00
11:54 am 11:54 Mostly Sunny 61 16.1 18 -7.8 19 19 NNW 10 17 30.15 1021 10 16 0.00 0.00
12:54 pm 12:54 Partly Cloudy 64 17.8 20 -6.7 18 18 N 8 13 30.13 1020 10 16 0.00 0.00
1:54 pm 13:54 Partly Cloudy 65 18.3 19 -7.2 17 17 W 10 17 30.11 1020 10 16 0.00 0.00
2:54 pm 14:54 Partly Cloudy 68 20 16 -8.9 13 13 NW 14 22 30.08 1019 10 16 0.00 0.00
3:54 pm 15:54 Partly Cloudy 68 20 18 -7.8 15 15 WNW 8 13 30.06 1018 10 16 0.00 0.00
4:54 pm 16:54 Partly Cloudy 70 21.1 19 -7.2 14 14 W 8 13 30.05 1018 10 16 0.00 0.00
5:54 pm 17:54 Partly Cloudy 70 21.1 17 -8.3 13 13 NW 6 9 30.05 1018 10 16 0.00 0.00
6:54 pm 18:54 Mostly Cloudy 69 20.6 17 -8.3 14 14 WNW 7 11 30.06 1018 10 16 0.00 0.00
7:54 pm 19:54 Mostly Cloudy 66 18.9 28 -2.2 24 24 WSW 9 15 30.07 1018 10 16 0.00 0.00
8:54 pm 20:54 Mostly Cloudy 64 17.8 28 -2.2 26 26 WSW 8 13 30.08 1019 10 16 0.00 0.00
9:54 pm 21:54 Partly Cloudy 61 16.1 27 -2.8 27 27 SW 7 11 30.09 1019 10 16 0.00 0.00
10:54 pm 22:54 Partly Cloudy 58 14.4 30 -1.1 35 35 SSW 9 15 30.09 1019 10 16 0.00 0.00
11:54 pm 23:54 Partly Cloudy 55 12.8 34 1.1 45 45 WSW 3 6 30.10 1019 10 16 0.00 0.00

Powered by AerisWeather